COSMOS 1275 DEB, 12712

Orbit data source: Space-Track

COSMOS 1275 DEB, 12712 is space debris in LEO originally from a launch on Thu, 04 Jun 1981 UTC launched from the Plesetsk Missile And Space Complex (PKMTR). Debris objects in space refer to the collection of defunct objects orbiting the Earth. Examples of debris include non-operational satellites, rocket bodies, and fragments generated from explosions, collisions, or faulty payload assembly.

Loading next visibility...
Identifier
12712, 1981-053BG
Orbit
LEO
Country
Flag of CISCIS
Related business
Manufacturer
Unknown
Mission
Spacecraft
Bus & Motor
Unknown
Mass
Unknown
Launch date (UTC)
1981-06-04 (45 years ago)
Launch vehicle
Unknown
Launch site
Plesetsk Missile And Space Complex (PKMTR)
Object type
Payload
Rocket body
Debris
Shape & HBR
Unknown shape, 0.1 m
Radar Cross Section
Medium (>0.1 m² and <1 m²)

Expand to show TLE details & history
Last TLE update: 1 day ago

TLE from 1 day ago
0 COSMOS 1275 DEB
1 12712U 81053BG  26171.35256229  .00000831  00000-0  65414-3 0  9996
2 12712  82.9844 314.2582 0070621  86.9620 300.9667 13.89471901251891
Epoch: 2026-06-20T08:27Z
TLE epoch observation values (Epoch: 2026-06-20T08:27:41.381Z)
Latitude
27.04883°
Longitude
-77.64901°
Altitude
907.503 km
Speed
7.414 km/s
True Right ascension
21h 11m 22s
True Declination
26° 54' 46"
Sunlit
Object was in daylight at epoch
Visualization orbit readout
Latitude
Unknown
Longitude
Unknown
Altitude
Unknown
Speed
Unknown
Apparent Right ascension
Unknown
Apparent Declination
Unknown
Sunlit
N/A
Visualization observer readout
Local Sidereal Time
06:13:01
Azimuth
Unknown
Elevation
Unknown
Doppler factor
Unknown
Orbital elements
Apogee altitude
979.203 km
Perigee altitude
876.015 km
Semi-major axis
7,305.746 km
Eccentricity
0.00706
Inclination
82.9844°
RAAN
314.2582°
Arg. of periapsis
86.962°
True anomaly
300.26964°
Mean anomaly
300.9667°
Eccentric anomaly
300.61849°
Mean motion
3.47573 °/min
Orbital period
103.58 mins
BSTAR
0.00065414
Loading maneuver chart data...
Computing Atmospheric mass density...

Documentation

Showing up to 5 results
|